Location: Clarion
(42.7316°N, 93.7330°W)
Time: 08:46:21
(UTC+00:00)

Envisat - Pass Details

Date: 22 April 2026
Orbit: 761 x 762 km, 98.4° (Epoch: 17 May)

Event Time Altitude Azimuth Distance (km) Brightness Sun altitude
Rises 08:33:30 0° 17° (NNE) 3,233 7.3 -26.4°
Reaches altitude 10° 08:35:52 10° 22° (NNE) 2,302 6.4 -26.1°
Maximum altitude 08:40:51 55° 100° (E) 914 3.4 -25.5°
Enters shadow 08:41:56 45° 144° (SE) 1,025 3.5 -25.4°
